Flag for Germany Weather past 2 weeks in Kempten, Bavaria, Germany

Now
58 °F

Clear.


Feels Like: 58 °F
Forecast: 54 / 82 °F
Wind: 2 mph from Southeast

Location: Kempten

Current Time: Jun 30, 2015 at 1:22:16 AM

Latest Report: Jun 30, 2015 at 1:00 AM


Visibility: 16 mi

Pressure: 30.21 "Hg

Humidity: 87%

Dew point: 54 °F

Location of KemptenLocation

Historic Weather in Kempten — Graph

°F

Kempten temperature yesterday

Maximum temperature yesterday: 78 °F (at 4:00 PM)
Minimum temperature yesterday: 53 °F (at 3:00 AM)
Average temperature yesterday: 65 °F

Past Weeks' High & Low Weather Summary

 TemperatureHumidityPressure
High78 °F (Jun 29, 4:00 PM)98% (Jun 15, 2:00 PM)30.27 "Hg (Jun 15, 2:00 PM)
Low45 °F (Jun 25, 4:00 AM)34% (Jun 25, 6:00 PM)29.73 "Hg (Jun 22, 10:00 PM)
Average58 °F75%30.07 "Hg
* Reported Jun 14 10:00 PM — Jun 29 10:00 PM, Kempten, Weather by CustomWeather, © 2015

Note: Actual official high and low records may vary slightly from our data, if they occured in-between our weather recording intervals... More about our weather records

Advertising

Kempten weather history for previous 24 hours

 ConditionsComfort  
Time TempWeatherWind HumidityBarometerVisibility
10:00 PM
Mon, Jun 29
63 °FClear.1 mph83%30.17 "Hg19 mi
9:00 PM68 °FPassing clouds.2 mph67%30.14 "Hg28 mi
8:00 PM74 °FSunny.1 mph43%30.11 "Hg31 mi
7:00 PM77 °FPartly sunny.2 mph43%30.09 "Hg28 mi
6:00 PM75 °FOvercast.2 mph43%30.09 "Hg25 mi
4:00 PM78 °FScattered clouds.5 mph41%30.09 "Hg17 mi
3:00 PM76 °FPartly sunny.3 mph40%30.09 "Hg34 mi
2:00 PM75 °FPartly sunny.5 mph46%30.10 "Hg19 mi
1:00 PM73 °FScattered clouds.3 mph46%30.11 "Hg17 mi
12:00 PM74 °FScattered clouds.3 mph49%30.11 "Hg19 mi
10:00 AM66 °FOvercast.2 mph64%30.15 "Hg25 mi
9:00 AM63 °FOvercast.2 mph69%30.16 "Hg22 mi
8:00 AM60 °FPartly sunny.2 mph72%30.16 "Hg18 mi
7:00 AM57 °FOvercast.2 mph78%30.17 "Hg25 mi
6:00 AM55 °FOvercast.2 mph85%30.17 "Hg22 mi
4:00 AM53 °FPassing clouds.2 mph89%30.18 "Hg17 mi
3:00 AM53 °FClear.2 mph92%30.19 "Hg22 mi
2:00 AM54 °FPassing clouds.2 mph93%30.19 "Hg7 mi
1:00 AM56 °FClear.1 mph91%30.19 "Hg10 mi
Weather by CustomWeather, © 2015

See weather overviewHow to use our weather pages